Terminal Aerodrome Forecast
Issued by NWS

Home | Current Version | Previous Version | Graphics & Text | Print | Product List | Glossary Off
Versions: 1 2 3 4 5 6 7 8 9 10 11 12 13 14 15 16 17 18 19 20 21 22 23 24 25 26 27 28 29 30 31 32 33 34 35 36

646
FTUS43 KDDC 121730
TAFHYS
TAF
KHYS 121730Z 1218/1318 03010G15KT P6SM OVC010
     FM121900 04011KT P6SM SCT015
     FM122100 04010KT P6SM BKN050
     FM130100 07010KT P6SM OVC040
     FM130800 10009KT P6SM BKN010=

USA.gov is the U.S. government's official web portal to all federal, state and local government web resources and services.